sat.trackr.live / text

‹ back to catalog

PALISADE

NORAD 44634 · 2019-069A

PAYLOAD ACTIVE UNKNOWN

§ Identity

Operator
Country
US
Launch date
2019-10-17
Launch site
RLLB
Launch vehicle
Mass (kg)
RCS (m²)

External: N2YO · Heavens-Above · Gunter

§ Orbital elements

Epoch: 2026-09-13T01:31:40.701792Z

Period
109.76 min
Inclination
87.8807°
Eccentricity
0.0009148
Mean motion
13.11909904 rev/d
Perigee alt
1,208.8 km
Apogee alt
1,222.7 km
Semi-major
7,593.9 km
B*
-4.0989e-4
RAAN
262.2350°
Arg perigee
179.7652°
Mean anomaly
180.3482°
Rev number
33,063

§ Raw data

PALISADE1 44634U 19069A   26256.06366553 -.00000134  00000+0 -40989-3 0  99932 44634  87.8807 262.2350 0009148 179.7652 180.3482 13.11909904330638

JSON: /api/v1/satellites/44634 · /tle

For live sub-satellite position, see the globe view (requires WebGL).

§ Visibility from observer

Set your observer location to see the next 7 days of passes ≥ 10°. The values pass through the URL so the page stays shareable.

No JS? Fill the form by hand. The geolocation button needs JavaScript.